Regional Weather Roundup
Issued by NWS

Home | Current Version | Previous Version | Text Only | Print | Product List | Glossary Off
Versions: 1 2 3 4 5 6 7 8 9 10 11 12 13 14 15 16 17 18 19 20 21 22 23 24 25 26 27 28 29 30 31 32 33 34 35 36 37 38 39 40 41 42 43 44 45 46 47 48 49 50

103
ASUS45 KSLC 190010
RWRUT

UTAH REGIONAL WEATHER ROUNDUP
NATIONAL WEATHER SERVICE SALT LAKE CITY UT
500 PM MST THU JAN 18 2018

UTZ001>011-023>025-190100-

NORTHERN UTAH

CITY           SKY/WX    TMP DP  RH WIND       PRES   REMARKS
BRIGHAM CITY   CLOUDY    44  32  64 CALM      30.02F
DUGWAY         MOCLDY    50  30  45 SE10      29.99F
6HR MIN TEMP:  45; 6HR MAX TEMP:  56;

HILL AFB       CLOUDY    47  27  45 E7        30.00F
LOGAN          CLOUDY    46  30  53 NE5       30.01S
OGDEN          CLOUDY    48  35  60 NW5       30.00S
SALT LAKE CITY CLOUDY    49  36  61 SE5       29.99F
TOOELE VALLEY  CLOUDY    41  34  75 CALM      29.99F
WENDOVER       CLOUDY    40  29  64 CALM      30.01F
HEBER CITY       N/A     43  28  56 CALM      30.05S
WEST JORDAN    CLOUDY    49  29  45 S20       30.01F

$$

UTZ011>015-024>027-190100-

CENTRAL/NORTHEAST UTAH

CITY           SKY/WX    TMP DP  RH WIND       PRES   REMARKS
PROVO AIRPORT  CLOUDY    44  30  57 CALM      30.06F
MOAB/CANYONLAN MOCLDY    42  20  41 NW3       30.17F
DELTA          CLOUDY    50  30  46 SE5       30.06S
PRICE          CLOUDY    40  22  48 SE5       30.18F
RICHFIELD      CLEAR     52  27  37 NW3       30.08S
ROOSEVELT      CLOUDY    39  14  35 CALM      30.18F
VERNAL         MOCLDY    40  15  36 S3        30.16F

$$

UTZ013>016-019>022-027-190100-

SOUTHERN UTAH

CITY           SKY/WX    TMP DP  RH WIND       PRES   REMARKS
BRYCE CANYON   MOCLDY    39  26  59 SE6       30.21S WCI  35
CEDAR CITY     MOCLDY    51  26  37 SW13      30.12S
MILFORD        CLOUDY    55  29  36 S21       30.08S
ST GEORGE      CLOUDY    57  34  41 S3        30.12S
HANKSVILLE     MOCLDY    46  16  29 N7        30.20S
KANAB          CLEAR     54  25  32 SE2       30.20S
BLANDING         N/A     41  19  41 CALM      30.26F

$$

REGIONAL REPORTS     COLORADO/ARIZONA

CITY           SKY/WX    TMP DP  RH WIND       PRES   REMARKS
CRAIG, CO      PTCLDY    40  17  39 E10       30.15S WCI  33
GRAND JUNCTION MOCLDY    43  17  35 W3        30.19S
RIFLE, CO      PTCLDY    38  21  50 CALM      30.19S
MONTROSE, CO   PTCLDY    42  16  34 NW6       30.20S
CORTEZ, CO     PTCLDY    43  20  39 SW6       30.20S
COLORADO CITY    N/A     55  28  35 E3        30.18S
PAGE, AZ       MOCLDY    49  23  36 CALM      30.16F
GRAND CANYON   PTCLDY    52  15  23 SW5       30.21S
KINGMAN, AZ    MOCLDY    64  26  23 SW14      30.12S
FLAGSTAFF, AZ  PTCLDY    50  21  32 S8        30.22S

$$

REGIONAL REPORTS    NEVADA/IDAHO/WYOMING

CITY           SKY/WX    TMP DP  RH WIND       PRES   REMARKS
LAS VEGAS, NV  MOCLDY    64  38  38 E7        30.06F
ELY, NY        CLOUDY    50  26  39 S16G24    30.05R
ELKO, NV       MOCLDY    52  27  38 W7        29.91F
POCATELLO, ID  CLOUDY    51  31  46 VRB6      29.91F
BURLEY, ID     CLOUDY    50  32  50 S18G28    29.86F
FORT BRIDGER,    N/A     43  21  42 S7        30.08F
EVANSTON, WY   CLOUDY    44  27  51 SW14      30.05F
ROCK SPRINGS,  PTCLDY    43  17  35 S8        30.06F

$$




USA.gov is the U.S. government's official web portal to all federal, state and local government web resources and services.